Tri-Cities, TN

12:11 PM EDT on April 25, 2017 (GMT -0400)
Tri-Cities Regional Tennessee / Virginia

Weather History for KTRI - January, 1999

Change the Weather History Date:

Sunday, January 24, 1999

  Actual Average Record
Temperature  
Mean Temperature 44 °F 35 °F  
Max Temperature 57 °F 46 °F 78 °F (1972)
Min Temperature 30 °F 25 °F -8 °F (1963)
Degree Days  
Heating Degree Days 20 30  
Month to date heating degree days 720  
Since 1 July heating degree days 2449  
Cooling Degree Days 0 0  
Month to date cooling degree days 0  
Year to date cooling degree days 0  
Moisture  
Dew Point 42 °F    
Average Humidity 84    
Maximum Humidity 100    
Minimum Humidity 61    
Precipitation  
Precipitation 0.46 in 0.11 in 1.00 in (2010)
Month to date precipitation 2.60  
Year to date precipitation 2.60  
Snow  
Snow 0.00 in 0.20 in - ()
Month to date snowfall 3.7  
Since 1 July snowfall 6.4  
Snow Depth -    
Sea Level Pressure  
Sea Level Pressure 30.05 in    
Wind  
Wind Speed 9 mph (West)    
Max Wind Speed 16 mph    
Max Gust Speed 21 mph    
Visibility 8 miles    
Events Rain    
T = Trace of Precipitation, MM = Missing Value Source: NWS Daily Summary

Daily Weather History Graph

Daily Weather History Graph

Search for Another Location

Airport or City:

Trip Planner

Search our weather history database for the weather conditions in past years. The results will help you decide how hot, cold, wet, or windy it might be!

Date:

Astronomy

Jan. 24, 1999 Rise Set
Actual Time 7:36 AM EST 5:46 PM EST
Civil Twilight 7:09 AM EST 6:14 PM EST
Nautical Twilight 6:38 AM EST 6:45 PM EST
Astronomical Twilight 6:07 AM EST 7:16 PM EST
Moon 12:02 PM EST (1/24) 12:16 AM EST (1/24)
Length of Visible Light 11h 05m
Length of Day
10h 09m
Waxing Crescent, 49% of the Moon is Illuminated
Jan 24
Waxing Crescent
Jan 24
First Quarter
Jan 31
Full
Feb 8
Last Quarter
Feb 16
New

Hourly Weather History & Observations

Time (EST) Temp. Windchill Dew Point Humidity Pressure Visibility Wind Dir Wind Speed Gust Speed Precip Events Conditions
12:38 AM 57.2 °F - 55.4 °F 94% 29.85 in 1.8 mi WSW 8.1 mph - 0.21 in Rain Heavy Rain
12:53 AM 55.9 °F - 55.0 °F 97% 29.83 in 5.0 mi West 4.6 mph - 0.25 in Rain Light Rain
1:14 AM 55.4 °F - 55.4 °F 100% 29.87 in 3.0 mi WNW 13.8 mph - 0.06 in Rain Rain
1:31 AM 55.4 °F - 53.6 °F 94% 29.87 in 4.0 mi West 13.8 mph - 0.12 in Rain Rain
1:53 AM 54.0 °F - 52.0 °F 93% 29.88 in 10.0 mi WSW 9.2 mph - 0.14 in Rain Light Rain
2:26 AM 53.6 °F - 51.8 °F 94% 29.92 in 10.0 mi West 11.5 mph - 0.01 in Rain Light Rain
2:53 AM 52.0 °F - 51.1 °F 97% 29.92 in 5.0 mi West 9.2 mph - 0.03 in Rain Rain
3:01 AM 51.8 °F - 51.8 °F 100% 29.93 in 5.0 mi West 9.2 mph - 0.01 in Rain Light Rain
3:08 AM 51.8 °F - 51.8 °F 100% 29.94 in 6.0 mi West 9.2 mph - 0.02 in Rain Light Rain
3:17 AM 51.8 °F - 50.0 °F 94% 29.94 in 6.0 mi West 9.2 mph - 0.03 in Rain Light Rain
3:53 AM 51.1 °F - 48.9 °F 92% 29.93 in 10.0 mi WNW 6.9 mph - 0.04 in   Overcast
4:53 AM 50.0 °F - 48.9 °F 96% 29.95 in 10.0 mi SW 4.6 mph - N/A   Overcast
5:53 AM 50.0 °F - 48.0 °F 93% 29.96 in 10.0 mi West 8.1 mph - N/A   Overcast
6:53 AM 48.0 °F - 42.1 °F 80% 29.99 in 10.0 mi WNW 10.4 mph - N/A   Overcast
7:39 AM 46.4 °F 41.9 °F 42.8 °F 87% 30.03 in 10.0 mi West 9.2 mph - N/A   Overcast
7:53 AM 46.9 °F - 42.1 °F 83% 30.02 in 10.0 mi West 9.2 mph - N/A   Overcast
8:53 AM 46.9 °F - 41.0 °F 80% 30.04 in 10.0 mi West 8.1 mph - N/A   Overcast
9:53 AM 46.9 °F - 39.9 °F 77% 30.07 in 10.0 mi WNW 9.2 mph - N/A   Overcast
10:53 AM 46.0 °F 40.6 °F 39.9 °F 79% 30.09 in 10.0 mi WNW 11.5 mph - N/A   Overcast
11:05 AM 44.6 °F 37.4 °F 39.2 °F 81% 30.10 in 10.0 mi West 16.1 mph 20.7 mph N/A   Overcast
11:53 AM 45.0 °F 39.7 °F 37.9 °F 76% 30.09 in 10.0 mi NW 10.4 mph - N/A   Mostly Cloudy
12:53 PM 46.9 °F - 37.9 °F 71% 30.10 in 10.0 mi WNW 10.4 mph - N/A   Overcast
1:53 PM 46.9 °F - 36.0 °F 66% 30.12 in 10.0 mi NW 12.7 mph - N/A   Overcast
2:15 PM 48.2 °F - 37.4 °F 66% 30.12 in 10.0 mi West 15.0 mph - N/A   Overcast
2:53 PM 46.9 °F - 34.0 °F 61% 30.12 in 10.0 mi West 10.4 mph - N/A   Partly Cloudy
3:53 PM 46.9 °F - 34.0 °F 61% 30.15 in 10.0 mi West 13.8 mph - N/A   Mostly Cloudy
4:53 PM 45.0 °F 40.6 °F 33.1 °F 63% 30.18 in 10.0 mi WNW 8.1 mph - N/A   Partly Cloudy
5:53 PM 42.1 °F 37.1 °F 32.0 °F 67% 30.20 in 10.0 mi West 8.1 mph - N/A   Clear
6:53 PM 39.0 °F 34.0 °F 32.0 °F 76% 30.23 in 10.0 mi West 6.9 mph - N/A   Clear
7:53 PM 37.9 °F 33.5 °F 32.0 °F 79% 30.25 in 10.0 mi SSW 5.8 mph - N/A   Clear
8:53 PM 37.0 °F - 32.0 °F 82% 30.23 in 10.0 mi Calm Calm - N/A   Clear
9:53 PM 33.1 °F - 30.9 °F 92% 30.22 in 9.0 mi Calm Calm - N/A   Clear
10:53 PM 32.0 °F - 30.9 °F 96% 30.22 in 7.0 mi Calm Calm - N/A   Clear
11:53 PM 30.9 °F - 30.0 °F 96% 30.22 in 6.0 mi Calm Calm - N/A   Clear